sat.trackr.live / text

‹ back to catalog

STARLINK-36973

NORAD 68078 · 2026-042K

PAYLOAD ACTIVE UNKNOWN

§ Identity

Operator
Country
US
Launch date
2026-03-04
Launch site
AFETR
Launch vehicle
Mass (kg)
RCS (m²)

Purposes: comms

External: N2YO · Heavens-Above · Gunter

§ Orbital elements

Epoch: 2026-09-19T14:24:40.125888Z

Period
93.85 min
Inclination
53.1619°
Eccentricity
0.0000607
Mean motion
15.34416379 rev/d
Perigee alt
462.2 km
Apogee alt
463.1 km
Semi-major
6,840.8 km
B*
6.7392e-4
RAAN
353.7747°
Arg perigee
335.8507°
Mean anomaly
24.2467°
Rev number
3,205

§ Raw data

STARLINK-369731 68078U 26042K   26262.60046442  .00022473  00000+0  67392-3 0  99942 68078  53.1619 353.7747 0000607 335.8507  24.2467 15.34416379 32054

JSON: /api/v1/satellites/68078 · /tle

For live sub-satellite position, see the globe view (requires WebGL).

§ Visibility from observer

Set your observer location to see the next 7 days of passes ≥ 10°. The values pass through the URL so the page stays shareable.

No JS? Fill the form by hand. The geolocation button needs JavaScript.